Temp
63 63 63 62 62 63 63 62 63 62 62 61 62 62 62 61 62 61 61 60 60 59 58 58 58 58 59 58 59 60 59 58 58 58 58 57 57 56 55 54 54 54
62 62 63 62 61 62 62 63 62 62 61 61 61 61 61 61 61 61 60 60 59 58 58 58 58 58 58 59 59 58 57 57 57 59 58 57 56 56 55 54 53 53
62 62 62 62 61 61 62 62 62 61 61 60 61 61 60 61 60 60 60 60 58 57 57 57 58 58 59 59 60 59 58 57 57 58 58 56 56 55 55 55 53 52
62 62 62 62 62 61 61 62 61 61 61 60 60 61 61 61 61 60 60 59 58 58 58 58 58 59 61 61 60 59 59 58 58 58 57 57 56 55 54 54 53 52
61 61 62 62 61 61 61 61 60 60 61 60 60 61 61 60 60 59 59 58 58 58 58 58 59 61 61 61 61 59 59 58 58 58 57 56 56 55 55 54 52 51
62 62 62 61 61 61 61 60 60 60 60 60 60 60 60 61 60 59 59 58 57 57 57 58 59 60 61 60 60 59 58 58 57 57 56 55 55 55 55 53 52 51
61 61 61 61 61 61 60 59 60 60 60 60 60 59 60 60 59 59 58 58 58 58 57 57 58 59 60 60 59 58 58 58 57 56 55 55 56 55 55 53 52 51
60 60 60 60 60 59 59 59 59 59 59 59 59 59 60 59 59 58 58 57 57 57 58 59 59 59 59 59 59 58 57 57 56 56 56 56 55 54 54 53 52 51
60 60 59 59 59 59 58 58 58 58 59 58 58 58 58 58 57 57 57 57 56 57 58 58 59 59 59 59 58 57 56 55 55 55 55 55 54 54 54 53 51 50
59 59 59 58 58 58 57 57 57 57 58 58 57 57 56 56 56 55 55 55 55 56 58 58 57 57 58 58 57 56 56 55 54 54 55 55 55 54 53 52 51 50
58 59 58 57 57 57 56 56 56 56 57 56 56 55 55 54 54 54 53 54 54 56 56 57 56 56 56 56 56 56 56 55 54 54 55 55 54 54 54 52 51 50
57 57 57 56 56 56 56 56 56 56 55 56 56 54 54 54 53 53 53 52 53 55 55 54 54 54 54 55 56 56 55 54 54 55 55 54 53 53 52 52 51 50
57 56 56 56 56 56 56 56 55 55 55 54 55 54 53 52 52 52 52 53 53 54 54 53 53 53 54 55 55 54 54 54 54 54 54 53 52 52 52 51 51 51
57 56 56 56 56 56 56 55 55 54 54 55 55 54 53 52 52 52 51 52 52 52 52 52 53 53 53 53 54 54 53 53 53 53 53 52 51 51 50 50 50 50
56 56 57 57 56 56 55 54 54 55 55 55 55 54 53 52 52 52 51 51 51 51 51 51 51 51 52 53 52 51 50 50 51 52 51 50 49 49 49 49 49 49
56 57 57 57 56 55 54 54 54 55 54 53 53 52 52 52 51 51 51 51 50 49 49 49 49 50 50 49 50 51 49 49 49 49 49 48 48 47 47 48 48 48
57 57 57 56 56 55 54 53 53 53 52 52 51 51 50 50 50 49 49 49 49 47 47 47 46 48 44 43 44 46 49 49 48 47 47 46 46 46 46 47 47 48
57 58 57 56 55 54 54 53 52 52 51 50 49 48 48 48 48 48 48 48 47 46 45 46 46 45 41 42 43 44 47 48 47 47 46 45 45 45 45 45 46 47
57 57 56 55 55 54 53 52 52 51 50 49 48 48 48 47 46 47 46 46 46 46 45 45 44 42 41 42 42 42 43 46 47 46 46 44 44 44 44 44 45 47
57 56 55 55 54 54 53 52 51 50 49 49 48 47 46 45 45 45 45 45 46 45 44 44 44 43 41 42 42 42 42 44 46 45 45 44 44 44 44 44 44 46
57 56 54 54 54 54 53 52 51 49 49 48 48 47 46 45 45 44 45 46 46 45 45 44 44 42 41 41 41 42 41 43 45 45 45 44 44 44 44 44 44 44
56 55 55 54 54 53 52 50 50 50 48 47 47 45 45 45 45 46 45 45 45 46 45 43 43 41 41 41 42 42 43 46 45 45 44 44 44 44 44 45 45 45
56 55 54 54 53 52 51 50 49 48 47 47 46 45 44 44 44 45 45 45 46 46 45 44 43 42 41 41 41 41 44 46 45 45 44 44 43 43 44 45 47 46
56 55 54 54 53 52 51 49 49 48 48 47 45 44 43 44 45 45 45 46 46 45 46 45 44 43 41 41 41 42 45 45 45 45 43 44 43 43 43 44 47 48
55 55 54 53 52 52 51 49 48 48 47 47 46 45 44 44 45 44 44 44 45 46 48 45 44 44 41 40 41 42 44 45 46 45 44 43 43 44 43 43 44 45
54 54 54 53 52 51 50 49 48 47 46 45 45 45 44 43 44 45 45 44 46 46 47 45 44 43 43 40 41 41 42 46 46 47 45 43 44 45 45 44 43 43
MSLP
1014.28 1014.48 1014.40 1014.48 1014.84 1015.20 1015.60 1015.92 1016.12 1016.32 1016.64 1016.80 1016.96 1017.20 1017.32 1017.68 1017.92 1018.12 1018.32 1018.48 1018.60 1018.68 1018.84 1019.00 1019.12 1019.24 1019.36 1019.40 1019.52 1019.68 1019.92 1020.08 1020.12 1020.16 1020.16 1020.16 1020.28 1020.36 1020.52 1020.60 1020.56 1020.52
1014.20 1014.28 1014.36 1014.52 1014.96 1015.36 1015.64 1015.76 1015.96 1016.24 1016.68 1016.92 1017.04 1017.20 1017.40 1017.64 1018.00 1018.12 1018.28 1018.48 1018.64 1018.84 1019.00 1019.12 1019.20 1019.28 1019.40 1019.56 1019.76 1019.96 1020.20 1020.20 1020.28 1020.24 1020.28 1020.36 1020.52 1020.56 1020.72 1020.84 1020.92 1020.80
1014.16 1014.36 1014.44 1014.72 1015.04 1015.36 1015.56 1015.76 1016.00 1016.36 1016.68 1017.00 1017.16 1017.24 1017.44 1017.72 1018.04 1018.20 1018.28 1018.48 1018.72 1018.96 1019.12 1019.24 1019.32 1019.40 1019.48 1019.68 1019.88 1020.08 1020.20 1020.28 1020.40 1020.40 1020.40 1020.64 1020.72 1020.84 1021.00 1021.04 1021.00 1020.92
1014.08 1014.12 1014.36 1014.64 1014.92 1015.20 1015.44 1015.72 1016.16 1016.48 1016.76 1017.04 1017.24 1017.36 1017.48 1017.80 1018.00 1018.20 1018.44 1018.64 1018.84 1019.08 1019.28 1019.36 1019.44 1019.52 1019.64 1019.80 1019.96 1020.16 1020.24 1020.32 1020.44 1020.44 1020.60 1020.80 1021.00 1021.16 1021.24 1021.16 1021.08 1020.92
1013.80 1014.12 1014.32 1014.60 1014.88 1015.08 1015.32 1015.68 1016.16 1016.52 1016.84 1017.08 1017.28 1017.44 1017.60 1017.84 1018.12 1018.40 1018.64 1018.88 1019.00 1019.24 1019.36 1019.48 1019.56 1019.68 1019.80 1019.92 1020.00 1020.16 1020.28 1020.48 1020.52 1020.56 1020.80 1021.12 1021.28 1021.24 1021.32 1021.24 1021.16 1021.08
1013.72 1013.92 1014.24 1014.52 1014.84 1015.04 1015.40 1015.76 1016.12 1016.48 1016.84 1017.12 1017.32 1017.52 1017.68 1017.92 1018.28 1018.60 1018.80 1018.96 1019.20 1019.32 1019.44 1019.56 1019.68 1019.84 1019.92 1020.00 1020.04 1020.20 1020.44 1020.60 1020.72 1020.76 1021.04 1021.36 1021.44 1021.36 1021.36 1021.36 1021.32 1021.28
1013.92 1014.20 1014.48 1014.72 1014.96 1015.16 1015.48 1015.88 1016.24 1016.52 1016.80 1017.08 1017.32 1017.64 1017.76 1018.12 1018.44 1018.72 1018.92 1019.08 1019.28 1019.44 1019.56 1019.72 1019.88 1020.00 1020.04 1020.04 1020.12 1020.40 1020.56 1020.68 1020.80 1020.96 1021.20 1021.40 1021.48 1021.56 1021.48 1021.48 1021.52 1021.48
1013.92 1014.32 1014.64 1014.88 1015.16 1015.48 1015.72 1016.04 1016.32 1016.64 1016.88 1017.16 1017.48 1017.80 1017.92 1018.24 1018.60 1018.88 1019.08 1019.24 1019.36 1019.52 1019.68 1019.84 1020.00 1020.04 1020.12 1020.12 1020.28 1020.52 1020.64 1020.76 1020.92 1021.08 1021.28 1021.52 1021.64 1021.72 1021.68 1021.72 1021.76 1021.64
1013.80 1014.32 1014.72 1015.08 1015.36 1015.72 1016.04 1016.28 1016.52 1016.76 1016.92 1017.20 1017.64 1017.96 1018.20 1018.40 1018.72 1019.00 1019.24 1019.36 1019.48 1019.64 1019.72 1019.92 1020.04 1020.12 1020.20 1020.24 1020.40 1020.52 1020.76 1021.00 1021.12 1021.24 1021.40 1021.64 1021.80 1021.84 1021.88 1021.92 1021.88 1021.76
1014.04 1014.28 1014.68 1015.12 1015.52 1015.88 1016.20 1016.48 1016.68 1016.92 1017.08 1017.36 1017.80 1018.12 1018.40 1018.76 1018.92 1019.16 1019.32 1019.44 1019.56 1019.68 1019.88 1020.00 1020.16 1020.28 1020.24 1020.32 1020.48 1020.68 1020.92 1021.12 1021.28 1021.36 1021.44 1021.72 1021.88 1021.96 1022.08 1022.08 1022.00 1021.88
1014.40 1014.44 1014.72 1015.16 1015.56 1016.00 1016.32 1016.64 1016.84 1017.08 1017.32 1017.60 1017.96 1018.32 1018.60 1018.84 1019.20 1019.36 1019.44 1019.56 1019.60 1019.72 1020.00 1020.20 1020.28 1020.32 1020.40 1020.52 1020.60 1020.76 1020.96 1021.16 1021.32 1021.40 1021.60 1021.84 1021.96 1022.04 1022.08 1022.12 1022.04 1022.04
1014.64 1014.72 1014.84 1015.16 1015.60 1016.04 1016.40 1016.68 1016.96 1017.24 1017.56 1017.84 1018.00 1018.40 1018.76 1019.00 1019.24 1019.48 1019.52 1019.68 1019.84 1019.96 1020.12 1020.36 1020.48 1020.52 1020.48 1020.56 1020.68 1020.88 1021.12 1021.24 1021.32 1021.44 1021.72 1021.92 1022.08 1022.16 1022.12 1022.04 1022.00 1022.08
1014.56 1014.80 1015.00 1015.32 1015.64 1016.08 1016.44 1016.76 1017.12 1017.40 1017.64 1018.00 1018.24 1018.44 1018.80 1019.16 1019.40 1019.52 1019.72 1019.80 1020.00 1020.12 1020.20 1020.36 1020.60 1020.56 1020.52 1020.60 1020.80 1021.04 1021.20 1021.28 1021.36 1021.56 1021.84 1022.00 1022.12 1022.12 1022.12 1022.08 1022.04 1022.12
1014.48 1014.80 1015.08 1015.36 1015.76 1016.12 1016.48 1016.88 1017.24 1017.52 1017.80 1018.12 1018.32 1018.64 1018.96 1019.20 1019.40 1019.64 1019.88 1020.04 1020.24 1020.32 1020.52 1020.64 1020.64 1020.60 1020.64 1020.72 1020.88 1021.12 1021.24 1021.40 1021.52 1021.68 1021.92 1022.08 1022.16 1022.20 1022.16 1022.16 1022.20 1022.24
1014.56 1014.96 1015.20 1015.48 1015.84 1016.20 1016.64 1017.00 1017.32 1017.60 1017.88 1018.12 1018.36 1018.68 1019.00 1019.32 1019.56 1019.56 1019.88 1020.32 1020.56 1020.56 1020.72 1020.88 1020.76 1020.76 1020.72 1020.76 1021.00 1021.28 1021.36 1021.44 1021.60 1021.76 1021.92 1022.12 1022.16 1022.24 1022.32 1022.36 1022.40 1022.36
1014.52 1014.88 1015.20 1015.56 1015.92 1016.32 1016.72 1017.04 1017.36 1017.64 1017.88 1018.16 1018.48 1018.76 1019.04 1019.32 1019.52 1019.80 1020.04 1020.40 1020.56 1020.76 1021.00 1021.04 1021.04 1021.04 1020.96 1020.96 1020.96 1021.16 1021.48 1021.72 1021.88 1022.04 1022.08 1022.04 1022.04 1022.20 1022.44 1022.56 1022.56 1022.52
1014.48 1014.84 1015.20 1015.64 1016.00 1016.44 1016.84 1017.16 1017.48 1017.76 1018.08 1018.36 1018.68 1018.92 1019.12 1019.40 1019.60 1019.92 1020.28 1020.48 1020.60 1020.88 1021.12 1021.28 1021.32 1021.32 1021.20 1021.20 1021.32 1021.44 1021.56 1021.80 1021.92 1022.24 1022.28 1022.16 1022.20 1022.32 1022.44 1022.56 1022.56 1022.60
1014.36 1014.72 1015.24 1015.72 1016.12 1016.52 1016.92 1017.32 1017.68 1017.96 1018.28 1018.60 1018.88 1019.16 1019.44 1019.60 1019.72 1020.04 1020.36 1020.68 1020.96 1021.20 1021.32 1021.48 1021.56 1021.64 1021.48 1021.48 1021.56 1021.68 1021.76 1021.96 1022.12 1022.20 1022.32 1022.36 1022.40 1022.48 1022.60 1022.64 1022.64 1022.56
1014.24 1014.64 1015.20 1015.68 1016.12 1016.56 1016.96 1017.40 1017.72 1018.04 1018.40 1018.72 1019.08 1019.40 1019.60 1019.76 1020.12 1020.32 1020.60 1020.88 1020.96 1021.16 1021.40 1021.60 1021.72 1021.88 1021.76 1021.76 1021.84 1021.92 1021.96 1022.04 1022.28 1022.40 1022.36 1022.52 1022.60 1022.60 1022.68 1022.76 1022.72 1022.48
1014.24 1014.64 1015.16 1015.68 1016.16 1016.64 1017.00 1017.40 1017.72 1018.16 1018.52 1018.84 1019.20 1019.52 1019.76 1020.16 1020.44 1020.60 1020.88 1021.00 1021.12 1021.24 1021.52 1021.76 1021.88 1022.08 1021.96 1021.96 1022.04 1022.08 1022.12 1022.16 1022.44 1022.52 1022.64 1022.72 1022.72 1022.76 1022.84 1022.88 1022.84 1022.64
1014.44 1014.84 1015.36 1015.88 1016.28 1016.68 1017.08 1017.48 1017.88 1018.40 1018.72 1019.00 1019.24 1019.56 1019.92 1020.28 1020.56 1020.80 1021.04 1021.20 1021.36 1021.40 1021.60 1021.92 1022.16 1022.24 1022.12 1022.12 1022.16 1022.20 1022.28 1022.32 1022.52 1022.64 1022.72 1022.80 1022.92 1023.00 1023.00 1022.96 1022.96 1022.92
1014.44 1015.00 1015.48 1015.96 1016.40 1016.84 1017.24 1017.64 1018.04 1018.32 1018.80 1019.20 1019.52 1019.96 1020.32 1020.52 1020.84 1020.92 1021.16 1021.36 1021.44 1021.48 1021.68 1022.08 1022.36 1022.40 1022.28 1022.24 1022.28 1022.32 1022.32 1022.48 1022.60 1022.64 1022.76 1022.88 1023.00 1023.08 1023.04 1023.04 1023.04 1023.00
1014.36 1014.96 1015.56 1016.00 1016.44 1016.92 1017.40 1017.80 1018.12 1018.52 1018.92 1019.16 1019.60 1020.12 1020.48 1020.68 1020.84 1021.04 1021.28 1021.40 1021.56 1021.68 1021.80 1022.12 1022.36 1022.48 1022.40 1022.36 1022.40 1022.40 1022.40 1022.64 1022.64 1022.76 1022.88 1022.92 1023.12 1023.20 1023.20 1023.12 1023.08 1023.16
1014.36 1014.84 1015.44 1015.96 1016.44 1016.84 1017.36 1017.84 1018.16 1018.48 1018.92 1019.20 1019.56 1020.00 1020.32 1020.64 1020.80 1021.16 1021.40 1021.44 1021.56 1021.80 1021.80 1021.96 1022.32 1022.48 1022.48 1022.48 1022.48 1022.52 1022.48 1022.60 1022.76 1022.80 1023.00 1023.04 1023.20 1023.32 1023.36 1023.36 1023.36 1023.32
1014.20 1014.64 1015.08 1015.64 1016.20 1016.76 1017.24 1017.76 1018.24 1018.60 1019.12 1019.48 1019.76 1020.08 1020.28 1020.36 1020.48 1020.92 1021.44 1021.68 1021.72 1021.76 1021.88 1021.96 1022.32 1022.52 1022.56 1022.56 1022.60 1022.68 1022.64 1022.76 1022.76 1022.76 1022.88 1023.16 1023.12 1023.24 1023.44 1023.48 1023.60 1023.64
1014.00 1014.16 1014.64 1015.32 1016.08 1016.76 1017.20 1017.60 1018.12 1018.76 1019.44 1019.88 1020.24 1020.36 1020.48 1020.44 1020.56 1020.84 1021.28 1021.72 1021.84 1021.80 1022.04 1022.28 1022.36 1022.56 1022.64 1022.68 1022.72 1022.80 1022.80 1022.76 1022.72 1022.56 1022.88 1023.16 1023.32 1023.24 1023.08 1023.40 1023.64 1023.68
Wind_Speed
8 6 7 7 7 7 7 7 6 7 6 6 7 6 7 6 5 6 6 6 6 6 6 5 5 5 5 5 6 7 6 6 5 4 6 6 7 6 6 7 6 5
8 7 6 7 6 6 5 6 7 7 7 6 6 7 6 7 5 6 7 7 6 6 5 5 5 5 6 6 6 7 5 5 6 4 6 8 6 6 7 7 5 4
7 8 9 9 9 8 8 6 7 7 7 6 6 7 7 6 7 6 6 7 7 6 6 5 5 5 6 6 6 5 5 6 6 5 7 8 6 7 6 5 4 5
7 8 8 8 8 9 8 8 7 7 7 7 6 6 7 6 7 7 7 6 7 6 5 5 5 5 5 6 7 6 6 7 6 6 8 6 6 5 5 4 4 5
9 7 7 8 7 8 8 9 9 8 7 7 7 7 7 7 6 6 6 6 6 6 6 6 5 5 5 5 6 6 6 6 6 7 7 7 4 4 4 4 5 6
6 7 8 9 9 9 8 9 9 9 8 8 7 6 7 8 7 6 7 7 6 6 6 6 6 5 5 5 5 6 6 6 6 8 8 6 4 5 4 5 6 6
7 7 8 8 8 9 9 9 8 8 7 7 7 7 7 7 6 7 7 6 6 6 6 6 5 5 4 4 6 7 6 7 7 7 7 5 5 5 5 5 5 6
8 7 8 8 9 9 10 9 8 8 8 8 8 7 7 7 6 6 6 7 7 7 6 6 4 5 4 4 6 6 6 5 6 7 7 6 5 4 5 4 4 5
10 9 9 10 10 9 9 9 8 8 8 10 8 6 6 6 7 7 7 7 7 6 7 5 5 4 4 5 6 7 7 6 5 6 6 6 5 4 4 4 5 6
9 10 11 10 10 9 10 8 8 8 8 9 8 7 8 6 7 7 7 7 7 7 6 6 5 3 4 6 7 7 7 6 6 6 6 5 4 4 4 4 5 6
8 10 11 11 10 9 10 9 9 8 8 9 9 8 8 7 6 6 7 6 6 7 6 5 4 5 6 6 7 7 7 6 6 7 6 5 4 4 5 5 6 7
8 9 11 11 11 10 10 10 9 9 9 7 8 9 7 7 7 5 6 7 6 6 7 5 4 4 6 7 7 7 7 6 6 7 6 5 4 4 3 4 5 5
10 9 10 10 10 10 9 9 9 9 9 9 7 9 8 7 7 7 5 7 6 6 6 5 4 4 6 6 7 6 6 7 7 6 6 5 4 4 4 4 5 4
10 10 10 10 10 10 9 9 9 8 9 8 7 7 7 8 8 7 6 6 5 5 5 4 4 5 5 6 6 6 6 6 6 6 5 4 4 5 5 5 5 4
10 9 9 10 10 10 10 10 9 9 9 8 7 7 5 6 6 8 8 6 4 5 5 3 4 4 4 6 7 6 6 6 6 6 5 4 4 5 5 5 4 4
11 10 10 11 11 11 10 9 9 8 8 8 8 7 7 6 7 7 7 6 6 6 5 4 4 3 4 7 7 7 7 6 5 5 4 3 4 5 5 4 3 3
11 11 11 11 11 10 9 9 9 8 7 9 8 7 8 6 7 8 6 5 7 6 5 4 4 3 7 10 9 9 7 7 7 5 4 5 5 5 4 4 3 3
11 12 12 11 10 9 10 9 8 8 9 8 8 8 7 7 8 7 6 6 6 6 6 5 4 4 8 9 9 9 8 7 6 5 5 5 4 4 4 3 3 3
12 13 12 11 10 10 10 9 9 9 9 8 8 7 7 8 8 8 7 6 7 7 6 5 5 4 8 10 10 10 10 8 5 6 6 5 5 5 4 3 2 3
12 12 12 11 11 10 9 9 10 9 8 7 7 7 7 7 7 7 6 6 6 7 6 5 5 5 9 10 10 10 10 8 6 7 6 6 6 5 4 4 3 3
11 11 12 11 11 11 11 9 10 9 8 7 7 8 8 7 7 7 6 6 6 7 7 6 4 6 9 10 10 11 10 8 6 6 6 6 5 5 4 4 4 3
12 11 11 11 11 11 11 10 9 10 9 7 7 7 6 7 6 6 7 6 6 7 8 7 5 6 9 10 10 10 10 6 6 7 7 6 6 5 5 5 4 4
12 12 12 11 11 11 10 10 10 9 8 7 9 7 7 6 6 6 6 7 7 7 8 7 5 5 7 9 9 10 8 6 7 7 6 7 6 5 5 6 5 5
12 13 13 12 11 12 11 9 9 8 8 7 9 9 8 8 7 7 5 6 7 7 7 8 5 5 7 7 8 8 7 7 6 7 7 6 6 6 5 6 7 11
13 13 13 13 12 11 11 11 10 9 7 7 7 7 8 8 8 8 6 5 5 7 7 8 6 4 6 8 8 7 7 6 6 7 7 6 6 6 6 5 5 6
12 15 15 14 13 11 10 10 9 9 9 8 6 6 6 7 7 8 8 5 4 6 6 5 6 5 6 7 7 7 6 6 5 7 7 6 6 5 6 6 6 6
Wind_Direction
157 178 158 148 144 148 152 150 146 137 136 138 136 132 122 117 117 113 111 103 97 90 83 79 77 79 76 75 80 82 80 82 79 70 72 69 60 51 46 35 27 18
152 149 134 120 117 125 132 139 137 136 135 130 125 121 115 116 117 120 114 104 90 83 82 80 78 83 86 89 88 92 87 83 79 63 73 65 58 55 49 37 26 7
146 142 141 144 145 144 137 129 124 126 126 125 121 120 119 115 115 105 100 98 94 87 78 79 79 82 93 96 93 91 93 89 83 76 73 64 51 52 44 31 18 12
146 147 140 135 137 137 134 127 121 117 121 123 123 122 117 116 113 105 97 95 96 90 85 78 83 82 96 102 103 94 94 87 85 82 79 70 59 59 38 21 14 19
143 134 130 129 130 130 131 128 127 126 122 121 117 117 114 112 104 93 99 96 98 95 84 79 81 88 91 97 102 101 88 89 87 82 77 69 51 55 36 17 21 19
128 130 134 134 136 134 130 128 129 128 127 125 122 115 112 109 106 110 109 108 102 100 92 79 76 80 89 95 99 93 97 87 83 85 81 77 58 46 32 25 20 21
125 127 124 123 123 124 121 124 125 124 122 122 112 109 114 105 109 110 106 108 108 104 100 97 88 85 81 97 94 95 94 96 94 88 87 78 68 44 28 25 20 19
128 124 125 122 119 120 121 124 125 122 123 112 108 109 113 109 107 108 108 109 105 100 99 100 99 95 92 95 98 100 91 88 89 93 88 82 71 49 28 23 13 21
133 131 127 124 122 122 122 124 120 117 118 116 112 106 94 106 112 115 115 111 105 104 91 81 86 90 102 100 96 94 95 91 86 89 89 82 76 55 39 23 25 30
133 131 128 128 124 125 124 121 118 115 115 112 114 111 108 96 103 112 113 114 113 102 95 90 73 77 84 95 102 105 103 100 100 96 88 85 85 70 47 36 35 36
131 134 132 129 127 127 124 121 118 116 114 117 116 112 113 113 98 102 107 107 111 113 102 92 86 74 89 104 109 111 109 108 103 92 86 85 81 74 68 58 48 50
142 138 134 132 129 126 125 122 120 117 116 112 118 116 106 105 112 104 108 107 103 102 98 95 88 102 106 115 118 114 113 110 102 94 94 92 89 81 79 62 61 51
146 143 137 132 129 127 124 122 121 121 118 119 117 117 119 115 109 104 94 100 95 95 92 93 104 102 108 114 112 107 112 111 104 100 99 101 95 91 68 54 45 34
143 139 136 131 128 126 125 122 122 120 119 121 119 115 116 118 117 113 100 81 84 91 87 100 104 100 105 110 109 110 106 97 101 102 103 94 81 58 55 44 29 17
138 134 131 130 128 127 125 125 125 126 126 123 117 111 107 109 119 113 102 89 84 87 82 68 82 103 127 127 115 105 107 102 111 115 117 114 89 70 49 41 25 1
140 138 137 133 131 129 129 128 128 128 125 119 115 114 114 114 102 94 101 113 102 77 71 69 68 73 106 121 129 134 119 109 96 95 99 97 81 66 46 37 25 4
141 140 137 133 131 127 128 128 127 125 117 115 116 116 111 108 110 102 96 90 92 98 85 72 69 76 101 107 112 119 117 114 114 103 90 77 65 72 63 21 17 4
143 138 135 132 129 129 129 126 124 120 117 116 113 108 101 102 101 94 94 97 95 93 92 89 83 79 103 105 108 109 112 110 106 105 93 75 69 71 59 41 15 9
143 139 136 136 133 131 131 129 127 120 119 117 113 116 111 104 103 104 105 110 111 109 101 90 91 98 103 103 104 105 107 105 98 99 94 82 74 66 56 45 16 21
143 139 137 136 135 133 130 129 126 123 120 115 115 108 108 107 108 113 113 113 116 113 106 95 95 117 114 110 109 107 105 100 96 95 88 82 70 60 54 52 32 35
140 137 133 133 133 133 131 126 122 120 118 120 119 118 119 123 127 121 118 116 117 112 105 92 88 116 115 111 108 105 99 96 93 90 85 73 63 54 55 53 43 41
140 136 133 132 131 131 128 125 127 128 124 119 108 101 101 107 105 113 120 120 115 110 104 101 93 103 110 110 108 106 100 92 91 84 81 74 58 42 42 47 50 48
141 136 133 133 132 131 129 130 130 126 122 122 113 112 117 118 123 119 125 122 116 113 113 110 104 89 98 103 104 106 99 91 90 83 75 71 57 43 38 40 46 50
139 136 135 136 136 137 137 135 133 126 126 127 127 133 131 133 129 116 115 126 129 129 130 124 116 94 94 94 93 90 101 103 96 93 77 73 69 49 43 45 44 48
143 141 140 141 141 141 140 138 136 131 121 118 123 128 135 138 131 126 119 109 127 130 127 120 123 104 94 96 96 101 101 104 104 95 85 64 73 64 44 52 36 40
150 150 146 142 141 140 140 136 128 118 118 116 116 121 129 123 122 128 129 131 133 123 117 125 123 110 99 99 103 102 111 111 105 99 96 84 66 73 67 40 38 28